Location: Great Hallingbury
(51.8333°N, 0.1833°E)
Time: 04:39:31
(UTC+00:00)

Daily predictions for brighter satellites

Satellite Brightness Start Highest point End
(mag) Time Altitude Azimuth Time Altitude Azimuth Time Altitude Azimuth
Cosmos 2333 Rocket 4.5 00:01:43 10° W 00:06:15 23° NW 00:10:48 10° NNE
Cosmos 2219 Rocket 4.4 00:03:44 10° W 00:08:19 24° NW 00:12:55 10° NNE
ATLAS CENTAUR R/B 3.8 00:07:30 11° SW 00:13:06 77° SE 00:28:53 10° ENE
Cosmos 1825 3.9 00:13:02 15° SE 00:15:08 23° E 00:18:10 10° NE
Cosmos 1812 Rocket 4.0 00:12:48 10° NNW 00:17:02 50° W 00:19:25 24° SSW
Cosmos 990 Rocket 4.0 00:13:17 10° NNW 00:18:32 79° ENE 00:22:38 16° SSE
Cosmos 1408 3.3 00:19:18 23° SSE 00:21:07 42° E 00:24:38 10° NNE
Cosmos 1656 Rocket 4.1 00:18:24 10° NNW 00:24:05 63° NE 00:29:43 10° SE
SL-16 R/B 2.2 00:19:56 19° SSW 00:24:12 88° WNW 00:29:55 10° NNE
Cosmos 2221 3.9 00:20:43 10° N 00:24:38 33° ENE 00:28:23 11° SE
Cosmos 405 Rocket 3.9 00:23:36 19° SE 00:25:30 31° E 00:28:49 10° NNE
X-37B 2.9 00:28:47 12° SE 00:28:47 12° SE 00:29:13 10° ESE
USA 229 DEB 4.0 00:22:35 21° S 00:26:45 49° ESE 00:33:19 10° NE
USA 229 4.0 00:22:43 21° S 00:26:52 49° ESE 00:33:25 10° NE
Cosmos 2058 4.5 00:24:22 14° SE 00:26:58 26° E 00:30:23 10° NNE
Cosmos 2237 Rocket 3.4 00:22:07 10° WSW 00:27:23 40° NW 00:32:42 10° NNE
Cosmos 1898 Rocket 3.5 00:26:33 10° NNW 00:31:51 82° ENE 00:36:11 15° SSE
Cosmos 1937 Rocket 3.9 00:26:47 10° NNW 00:32:06 64° ENE 00:37:19 10° SE
Cosmos 2369 Rocket 2.2 00:28:30 10° NNW 00:34:16 80° WSW 00:38:58 16° SSE
NOSS 3-1 (C) 3.3 00:31:11 18° SSW 00:35:18 75° SE 00:41:47 10° NE
ATLAS 3B R/B 4.3 00:30:08 10° W 00:36:14 35° NNW 00:42:34 10° NE
SJ 16-02 2.3 00:34:05 10° NW 00:38:00 32° WSW 00:40:01 21° SSW
FALCON 9 DEB 3.2 00:35:14 10° W 00:38:22 68° N 00:41:30 10° E
YAOGAN 11 4.4 00:35:34 16° SSE 00:39:00 66° ENE 00:43:30 10° N
Cosmos 1356 3.5 00:37:29 28° S 00:39:04 62° E 00:42:27 10° NNE
GP-B 3.8 00:34:54 10° N 00:39:07 44° W 00:41:51 20° SW
CREW DRAGON DEMO-1 DEB 4.0 00:40:05 20° ESE 00:40:05 20° ESE 00:41:22 10° E
NOSS 2-3 (E) 3.6 00:42:32 22° SSW 00:45:14 72° SE 00:50:16 10° NE
USA 215 3.4 00:39:40 10° ENE 00:46:13 78° NNW 00:52:45 10° WSW
NOSS 3-1 (A) 3.5 00:42:41 21° SSW 00:46:19 56° SE 00:52:35 10° NE
Cosmos 2263 4.2 00:42:12 10° NNW 00:47:56 84° WSW 00:53:07 12° SSE
Cosmos 1825 Rocket 3.6 00:45:41 23° SSW 00:48:27 74° WNW 00:52:56 10° N
ATLAS 5 CENTAUR R/B 3.7 00:48:34 10° SE 00:49:55 11° ESE 00:51:19 10° E
CZ-4 R/B 4.3 00:45:50 10° NNE 00:50:23 50° E 00:53:33 19° S
Cosmos 1932 4.4 00:47:01 10° NW 00:53:15 73° SW 00:59:24 10° SSE
Meteor 2-2 Rocket 4.4 00:48:52 10° NNW 00:54:57 83° ENE 01:00:06 15° SSE
FALCON 9 DEB 3.0 00:52:22 10° WNW 00:55:28 75° N 00:58:34 10° E
CZ-3B R/B 3.3 00:43:34 10° W 00:56:20 67° N 00:59:53 10° E
Cosmos 1606 3.7 00:57:07 10° N 01:00:49 43° ENE 01:04:12 12° SE
NOSS 8 (H) 4.5 01:00:24 28° S 01:01:37 47° SE 01:04:30 10° NE
FALCON 9 DEB 3.1 00:59:07 10° WNW 01:02:15 73° N 01:05:22 10° E
Helios 1A 2.9 01:00:06 19° SSE 01:03:04 84° WSW 01:07:18 10° NNW
Cosmos 468 Rocket 4.0 01:00:57 20° SSW 01:04:34 82° ESE 01:09:50 10° NNE
FALCON 9 DEB 2.9 01:02:36 10° WNW 01:05:43 78° N 01:08:50 10° E
SL-16 R/B 2.9 01:00:54 10° SE 01:07:00 64° ENE 01:13:07 10° NNW
Cosmos 372 Rocket 4.2 01:01:51 10° NNW 01:07:07 72° ENE 01:12:21 10° SSE
Cosmos 858 Rocket 4.5 01:04:12 10° NNW 01:09:30 74° WSW 01:14:05 14° SSE
USA 290 4.5 01:11:15 11° SE 01:13:10 17° ESE 01:15:20 10° ENE
Lacrosse 4 Rocket 1.9 01:09:15 10° NNW 01:13:20 58° NE 01:17:20 10° SE
Cosmos 1953 Rocket 3.8 01:10:29 20° SSW 01:13:23 63° WNW 01:17:47 10° N
CENTAUR R/B 4.4 01:09:22 10° NW 01:16:29 43° NNE 01:24:34 10° E
Cosmos 2098 Rocket 3.5 01:15:08 16° S 01:19:19 68° E 01:23:36 10° NNE
Cosmos 1763 Rocket 3.5 01:15:44 18° SSW 01:19:30 80° WNW 01:24:42 10° NNE
BREEZE-M R/B 4.2 01:18:11 15° SSE 01:19:30 18° SE 01:22:37 10° E
Cosmos 1437 Rocket 2.9 01:16:01 10° NNW 01:19:53 58° W 01:22:18 20° S
Resurs 1-4 Rocket 2.8 01:14:44 10° NNE 01:19:54 48° E 01:24:23 13° S
USA 267 4.3 01:19:19 17° SSW 01:22:31 24° SW 01:27:38 10° WNW
Cosmos 1892 3.9 01:21:02 16° SW 01:23:34 33° WNW 01:27:08 10° N
SL-4 R/B 1.6 01:21:00 10° W 01:24:49 89° S 01:28:23 10° E
NOSS 2-3 (D) 4.0 01:22:27 13° WSW 01:26:14 68° NW 01:31:26 10° NE
Cosmos 1943 Rocket 3.7 01:23:03 10° WNW 01:26:52 19° W 01:29:31 14° SW
Cosmos 1842 Rocket 3.6 01:25:39 10° NNW 01:29:57 64° W 01:33:14 17° S
NPP 4.4 01:25:51 10° NNE 01:31:04 48° E 01:35:57 12° S
ADEOS II 3.5 01:26:44 10° NNE 01:31:22 30° E 01:35:58 10° SSE
EO 1 Del DPAF 4.4 01:28:57 10° N 01:32:18 32° WNW 01:34:57 14° SW
Meteor 2-8 Rocket 4.5 01:27:10 10° NNW 01:33:18 74° W 01:38:54 13° S
Lacrosse 5 rocket 2.3 01:30:04 10° WNW 01:33:31 43° NNE 01:37:00 10° E
USA 306 4.2 01:32:05 17° S 01:34:19 26° SE 01:37:52 10° E
FALCON 9 DEB 3.4 01:31:48 10° W 01:35:04 43° SSW 01:38:19 10° SE
Cosmos 921 Rocket 3.3 01:32:38 17° S 01:35:45 58° ESE 01:39:52 10° NNE
Exosat Rocket 3.9 01:30:27 15° SW 01:35:46 74° WNW 01:40:56 10° NNE
Cosmos 1943 3.2 01:33:25 16° SSW 01:37:57 90° SE 01:43:40 10° NNE
CZ-2D R/B 2.3 01:33:30 10° NNE 01:38:42 64° ESE 01:43:15 13° S
MOZ.5/SAFIR/RUBIN 5/SL-8 4.2 01:38:06 16° S 01:41:39 48° W 01:46:17 10° NNW
NOSS 2-3 (C) 4.4 01:38:57 10° WSW 01:43:12 53° NW 01:48:26 10° NE
IDEFIX/ARIANE 42P 4.5 01:41:29 10° NE 01:45:38 23° E 01:49:45 10° SE
Cosmos 1603 3.8 01:41:52 15° SW 01:46:41 78° WNW 01:52:23 10° NNE
Cosmos 2151 3.6 01:44:56 11° SSE 01:48:51 49° E 01:52:55 10° NNE
Cosmos 1825 3.2 01:47:48 15° SW 01:50:28 33° WNW 01:53:56 10° N
AQUA 4.3 01:46:03 10° NNE 01:50:45 55° E 01:55:17 11° S
Cosmos 1076 Rocket 3.5 01:49:45 15° S 01:53:15 88° W 01:57:32 10° N
Cosmos 1437 2.5 01:51:06 10° NNW 01:53:52 57° W 01:55:51 17° S
Cosmos 1242 Rocket 3.3 01:54:12 10° NNW 01:57:32 37° W 02:00:05 15° SSW
Cosmos 540 Rocket 3.6 01:55:00 14° SW 01:59:22 67° WNW 02:04:30 10° NNE
Cosmos 405 Rocket 4.2 01:58:43 11° WSW 02:01:31 24° WNW 02:04:35 10° N
Cosmos 2221 3.6 01:58:22 10° NNW 02:02:08 30° W 02:05:13 14° SW
X-37B 1.9 02:01:04 15° SW 02:02:48 22° S 02:05:19 10° SE
Cosmos 2058 3.9 02:00:33 13° SW 02:03:45 35° WNW 02:07:32 10° N
BREEZE-M DEB (TANK) 1.5 02:02:42 10° W 02:05:22 46° S 02:07:34 10° ESE
IRS-1D 4.4 02:00:33 10° NNE 02:05:29 43° E 02:10:17 10° S
Cosmos 841 Rocket 3.6 02:03:07 13° SW 02:07:42 67° WNW 02:12:50 10° NNE
Cosmos 1553 Rocket 4.2 02:02:30 10° N 02:08:52 76° ENE 02:15:05 10° SSE
SL-16 R/B 4.0 02:04:32 10° W 02:09:07 24° NW 02:13:44 10° NNE
NOSS 2-2 (E) 3.2 02:08:02 14° SSW 02:10:53 64° SE 02:14:47 10° NE
CREW DRAGON DEMO-1 DEB 2.1 02:10:18 10° WSW 02:12:44 79° S 02:15:11 10° E
Cosmos 2292 Rocket 3.6 02:10:10 10° SSE 02:12:59 42° E 02:15:54 10° NNE
FALCON 9 DEB 2.8 02:11:00 10° WNW 02:14:06 63° SSW 02:17:12 10° ESE
Cosmos 1782 3.3 02:11:36 10° N 02:15:35 63° ENE 02:19:33 10° SSE
Cosmos 2369 Rocket 3.9 02:14:06 10° WNW 02:17:23 16° W 02:20:39 10° SW
Cosmos 1271 Rocket 3.8 02:13:51 10° N 02:17:28 44° ENE 02:21:04 10° SSE
USA 229 DEB 4.2 02:11:15 10° WSW 02:17:41 56° NNW 02:24:38 10° NE
USA 229 4.2 02:11:21 10° WSW 02:17:47 56° NNW 02:24:45 10° NE
USA 307 3.4 02:14:12 12° SW 02:17:49 44° SSE 02:21:52 10° ENE
USA 281 3.5 02:12:58 10° SE 02:19:30 76° ENE 02:26:06 10° NNW
Cosmos 2026 Rocket 4.1 02:16:02 10° SSW 02:22:18 76° WNW 02:28:43 10° N
Aureole 3 Rocket 3.9 02:20:26 10° NNW 02:23:55 34° W 02:28:26 10° SSW
NOSS 2-2 (C) 3.2 02:21:26 12° SSW 02:24:33 66° SE 02:28:24 10° NE
Helios 1B rocket 2.7 02:22:23 10° N 02:26:26 60° WNW 02:30:26 10° SSW
CZ-4C R/B 3.7 02:23:12 10° SSE 02:26:35 55° ENE 02:30:01 10° N
ERBS 4.4 02:25:16 10° S 02:27:18 16° SE 02:29:21 10° E
USA 215 4.0 02:22:36 10° ENE 02:28:58 57° N 02:35:21 10° WNW
Cosmos 1328 Rocket 4.1 02:25:13 10° N 02:29:34 62° ENE 02:33:54 10° SSE
NOSS 3-2 (A) 4.3 02:22:19 10° NW 02:29:34 78° NE 02:37:58 10° SE
Cosmos 1633 3.3 02:27:25 11° SW 02:30:32 37° WNW 02:33:51 10° N
FALCON 9 DEB 3.2 02:28:02 10° W 02:30:59 40° SSW 02:33:53 10° SE
SL-19 R/B 4.2 02:25:47 10° NNE 02:31:02 80° WNW 02:36:28 10° SSW
Cosmos 2298 Rocket 4.2 02:27:07 10° NNW 02:32:21 56° WSW 02:37:33 10° S
ATLAS 5 CENTAUR R/B 1.5 02:29:34 10° SW 02:33:30 78° SE 02:38:06 10° NE
USA 308 3.2 02:29:33 10° SW 02:33:41 53° SSE 02:37:51 10° ENE
SeaSat 1 3.9 02:30:42 10° NE 02:35:05 31° ESE 02:39:25 10° S
Cosmos 1606 4.4 02:33:29 10° NW 02:36:13 19° W 02:38:55 10° SW
Cosmos 1814 Rocket 4.3 02:32:11 10° SW 02:37:18 57° WNW 02:42:24 10° NNE
NOSS 3-1 (A) 4.3 02:31:51 10° WSW 02:37:24 47° NNW 02:44:02 10° NE
FALCON 9 DEB 3.2 02:34:52 10° W 02:37:52 44° SSW 02:40:52 10° SE
FALCON 9 DEB 3.4 02:38:19 10° W 02:41:14 36° SSW 02:44:06 10° SE
ADEOS Rocket 3.5 02:35:26 10° S 02:42:32 57° W 02:48:59 10° NNW
Cosmos 1933 3.9 02:38:54 10° NNW 02:42:46 41° W 02:46:36 10° SSW
Cosmos 1980 Rocket 4.5 02:38:06 10° NNW 02:43:01 30° NE 02:47:55 10° ESE
IRIDIUM 104 4.4 02:37:57 10° N 02:43:10 69° W 02:48:20 10° S
Cosmos 2150 Rocket 4.3 02:38:53 10° NW 02:43:52 48° WSW 02:48:54 10° S
USA 290 3.1 02:44:17 10° SW 02:47:19 38° WNW 02:50:23 10° NNE
Meteor 1-28 Rocket 3.5 02:47:17 10° S 02:50:58 48° W 02:54:41 10° NNW
SL-16 R/B 3.5 02:45:46 10° SSW 02:51:02 29° W 02:56:20 10° NW
USA 305 3.0 02:47:14 10° WSW 02:51:28 69° SSE 02:55:42 10° ENE
Lacrosse 4 Rocket 2.7 02:48:36 10° WNW 02:51:38 20° WSW 02:54:37 10° SSW
Cosmos 1125 Rocket 3.8 02:46:42 10° NNW 02:51:47 51° WSW 02:56:52 10° S
DELTA 2 DEB (DPAF) 4.5 02:47:41 10° S 02:51:59 49° W 02:56:20 10° NNW
Cosmos 1151 Rocket 3.1 02:49:00 10° NNW 02:53:14 62° W 02:57:25 10° S
Cosmos 2266 Rocket 4.3 02:51:59 10° S 02:58:01 70° E 03:04:03 10° NNE
